Tracking 29594 objects as of 20-Sep-2024
HD Live streaming from Space Station
objects crossing your sky now

ATLAS 2AS CENTAUR R/B

Track ATLAS 2AS CENTAUR R/B now!
10-day predictions


NORAD ID: 28096
Int'l Code: 2003-054B
Perigee: 1,030.3 km
Apogee: 1,195.1 km
Inclination: 63.7 °
Period: 107.4 minutes
Semi major axis: 7483 km
RCS: Unknown
Launch date: December 2, 2003
Source: United States (US)
Launch site: AIR FORCE WESTERN TEST RANGE (AFWTR)

Note: This is a ROCKET BODY
Your satellite tracking list
Your tracking list is empty




NASA's NSSDC Master Catalog

Two Line Element Set (TLE):
1 28096U 03054B   24263.51151704 -.00000007  00000-0  14099-3 0  9992
2 28096  63.6783 199.9269 0110116 163.6263 196.8367 13.40990759 17175
Source of the keplerian elements: McCants